Greenville, ME

12:10 PM EDT on July 22, 2017 (GMT -0400)
Greenville

Weather History for KGNR - November, 2011

Change the Weather History Date:

Sunday, November 20, 2011

  Actual Average (KMLT) Record (KMLT)
Temperature  
Mean Temperature 38 °F -  
Max Temperature 46 °F 37 °F 68 °F (1953)
Min Temperature 28 °F 23 °F 5 °F (1986)
Degree Days  
Heating Degree Days 27    
Moisture  
Dew Point 29 °F    
Average Humidity 73    
Maximum Humidity 96    
Minimum Humidity 59    
Precipitation  
Precipitation 0.05 in - - ()
Sea Level Pressure  
Sea Level Pressure 29.93 in    
Wind  
Wind Speed 3 mph (WNW)    
Max Wind Speed 13 mph    
Max Gust Speed 28 mph    
Averages and records for this station are not official NWS values.
T = Trace of Precipitation, MM = Missing Value Source: NWS Daily Summary

Daily Weather History Graph

Daily Weather History Graph

Search for Another Location

Airport or City:

Trip Planner

Search our weather history database for the weather conditions in past years. The results will help you decide how hot, cold, wet, or windy it might be!

Date:

Astronomy

Nov. 20, 2011 Rise Set
Actual Time 6:43 AM EST 4:03 PM EST
Civil Twilight 6:11 AM EST 4:36 PM EST
Nautical Twilight 5:34 AM EST 5:12 PM EST
Astronomical Twilight 4:59 AM EST 5:47 PM EST
Moon 12:53 AM EST (11/20) 1:03 PM EST (11/20)
Length of Visible Light 10h 25m
Length of Day
9h 20m
Waning Crescent, 27% of the Moon is Illuminated
Nov 20
Waning Crescent
Nov 25
New
Dec 2
First Quarter
Dec 10
Full
Dec 17
Last Quarter

Hourly Weather History & Observations

Time (EST) Temp. Windchill Dew Point Humidity Pressure Visibility Wind Dir Wind Speed Gust Speed Precip Events Conditions
12:56 AM 30.9 °F - 21.9 °F 69% 30.04 in - Calm Calm - N/A   Unknown
1:56 AM 32.0 °F - 21.9 °F 66% 30.01 in - Calm Calm - N/A   Unknown
2:56 AM 33.1 °F - 23.0 °F 66% 29.99 in - Calm Calm - N/A   Unknown
3:56 AM 32.0 °F 26.4 °F 23.0 °F 69% 29.95 in - SE 5.8 mph - N/A   Unknown
4:56 AM 33.1 °F - 23.0 °F 66% 29.95 in - Calm Calm - N/A   Unknown
5:56 AM 33.1 °F 28.7 °F 23.0 °F 66% 29.90 in - SSE 4.6 mph - N/A   Unknown
6:56 AM 34.0 °F - 23.0 °F 64% 29.88 in - Calm Calm - N/A   Unknown
7:56 AM 36.0 °F 33.3 °F 23.0 °F 59% 29.87 in - Variable 3.5 mph - N/A   Unknown
8:56 AM 35.1 °F 30.1 °F 27.0 °F 72% 29.84 in - SSE 5.8 mph - N/A   Unknown
9:56 AM 37.9 °F - 28.0 °F 68% 29.83 in - Calm Calm - N/A   Unknown
10:56 AM 41.0 °F 37.1 °F 30.9 °F 67% 29.79 in - Variable 5.8 mph - N/A   Unknown
11:56 AM 46.0 °F 44.8 °F 34.0 °F 63% 29.78 in - Variable 3.5 mph - N/A   Unknown
12:56 PM 46.9 °F - 36.0 °F 66% 29.78 in - Variable 3.5 mph - N/A   Unknown
1:56 PM 44.1 °F - 39.9 °F 85% 29.81 in - Calm Calm - 0.01 in   Unknown
2:56 PM 46.0 °F 43.9 °F 45.0 °F 96% 29.83 in - Variable 4.6 mph - 0.04 in   Unknown
3:56 PM 46.0 °F 44.8 °F 43.0 °F 89% 29.87 in - Variable 3.5 mph - N/A   Unknown
4:56 PM 44.1 °F 39.0 °F 39.9 °F 85% 29.93 in - NW 9.2 mph 18.4 mph N/A   Unknown
5:56 PM 41.0 °F 37.1 °F 36.0 °F 82% 29.96 in - Variable 5.8 mph - N/A   Unknown
6:56 PM 39.9 °F 33.4 °F 34.0 °F 79% 29.99 in - NW 10.4 mph 18.4 mph N/A   Unknown
7:56 PM 37.9 °F 32.1 °F 30.9 °F 76% 30.02 in - NW 8.1 mph 23.0 mph N/A   Unknown
8:56 PM 35.1 °F 26.9 °F 28.0 °F 76% 30.03 in - NW 11.5 mph 27.6 mph N/A   Unknown
9:56 PM 34.0 °F 25.0 °F 28.0 °F 79% 30.06 in - NW 12.7 mph 24.2 mph N/A   Unknown
10:56 PM 30.9 °F 22.8 °F 23.0 °F 72% 30.10 in - NW 9.2 mph 18.4 mph N/A   Unknown
11:56 PM 28.0 °F 22.8 °F 21.9 °F 78% 30.11 in - NW 4.6 mph - N/A   Unknown